Location: Hohe Wand Kleine Kanzel
(47.8330°N, 16.0170°E)
Time: 16:24:30
(UTC+02:00)

Vanguard 3 - Pass Details

Date: 10 August 2021
Orbit: 509 x 3260 km, 33.4° (Epoch: 27 September)

Event Time Altitude Azimuth Distance (km) Brightness Sun altitude
Rises 22:05:57 0° 272° (W) 6,062 12.3 -15.8°
Reaches altitude 10° 22:10:34 10° 261° (W) 5,413 11.8 -16.3°
Maximum altitude 22:23:11 26° 213° (SSW) 4,811 10.9 -17.7°
Enters shadow 22:35:14 14° 172° (S) 5,836 11.0 -19.0°
